EW4096 Weather Reports


time (UTC)temp
C
wind
direction
speed
KPH
gust
KPH
rain 1hr
cm
rain 24hr
cm
rain mn
cm
humidity
%
barometer
mb
20260507151506 15 13 0.0 0.0 0.00 0.00 0.00 47 1010.8
20260507151006 15 311 0.0 0.0 0.00 0.00 0.00 45 1010.8
20260507150504 15 224 0.0 0.0 0.00 0.00 0.00 44 1010.9
20260507150006 15 343 0.0 0.0 0.00 0.00 0.00 44 1011.1
20260507150002 15 318 0.0 0.0 0.00 0.00 0.00 44 1011.1
20260507145000 15 289 0.0 0.0 0.00 0.00 0.00 49 1011.2
20260507144500 15 347 0.0 0.0 0.00 0.00 0.00 41 1011.2
20260507143958 15 19 0.0 1.6 0.00 0.00 0.00 45 1011.2
20260507143457 15 5 0.0 1.6 0.00 0.00 0.00 47 1011.2
20260507143007 14 290 0.0 0.0 0.00 0.00 0.00 49 1011.4
20260507142958 15 299 0.0 0.0 0.00 0.00 0.00 45 1011.3
20260507142455 15 20 0.0 0.0 0.00 0.00 0.00 48 1011.2
20260507141501 14 5 0.0 0.0 0.00 0.00 0.00 51 1011.6
20260507140955 14 290 0.0 0.0 0.00 0.00 0.00 51 1011.5
20260507140456 13 268 0.0 0.0 0.00 0.00 0.00 53 1011.7
20260507135956 13 268 0.0 0.0 0.00 0.00 0.00 49 1011.7
20260507135455 13 324 0.0 0.0 0.00 0.00 0.00 53 1011.9
20260507134956 13 292 0.0 0.0 0.00 0.00 0.00 53 1011.9
20260507134456 13 322 0.0 0.0 0.00 0.00 0.00 52 1011.9
20260507133953 13 322 0.0 0.0 0.00 0.00 0.00 55 1012.0
20260507133452 13 281 0.0 0.0 0.00 0.00 0.00 53 1012.0
20260507132951 12 284 0.0 0.0 0.00 0.00 0.00 55 1012.0
20260507132452 12 300 0.0 0.0 0.00 0.00 0.00 56 1012.1
20260507131956 12 301 0.0 0.0 0.00 0.00 0.00 54 1012.1
20260507131952 12 301 0.0 0.0 0.00 0.00 0.00 56 1012.0
20260507130952 12 300 0.0 0.0 0.00 0.00 0.00 56 1012.0
20260507130451 12 300 0.0 0.0 0.00 0.00 0.00 57 1012.0
20260507125951 12 300 0.0 0.0 0.00 0.00 0.00 58 1012.1
20260507125452 11 300 0.0 0.0 0.00 0.00 0.00 58 1012.0
20260507124951 11 307 0.0 0.0 0.00 0.00 0.00 58 1012.0
20260507124451 11 259 0.0 0.0 0.00 0.00 0.00 58 1012.0
20260507123952 11 213 0.0 0.0 0.00 0.00 0.00 59 1012.1
20260507123451 11 212 0.0 0.0 0.00 0.00 0.00 59 1012.0
20260507122952 11 199 0.0 0.0 0.00 0.00 0.00 63 1012.1
20260507122452 11 199 0.0 0.0 0.00 0.00 0.00 64 1012.0
20260507121951 11 199 0.0 0.0 0.00 0.00 0.00 64 1011.9
20260507121451 11 199 0.0 0.0 0.00 0.00 0.00 63 1011.8
20260507120952 11 199 0.0 0.0 0.00 0.00 0.00 64 1011.9
20260507120451 11 198 0.0 0.0 0.00 0.00 0.00 66 1011.9
20260507115956 10 199 0.0 0.0 0.00 0.00 0.00 68 1011.7
20260507115952 11 199 0.0 0.0 0.00 0.00 0.00 69 1011.8
20260507115451 10 199 0.0 0.0 0.00 0.00 0.00 70 1011.8
20260507114948 10 199 0.0 0.0 0.00 0.00 0.00 69 1011.8
20260507114552 10 199 0.0 0.0 0.00 0.00 0.00 71 1011.8
20260507113444 11 199 0.0 0.0 0.00 0.00 0.00 71 1011.8
20260507112939 11 199 0.0 0.0 0.00 0.00 0.00 70 1012.0
20260507112437 11 199 0.0 0.0 0.00 0.00 0.00 71 1012.0
20260507111936 11 130 0.0 0.0 0.00 0.00 0.00 69 1011.9
20260507111435 11 101 0.0 0.0 0.00 0.00 0.00 68 1011.9
20260507110935 11 101 0.0 0.0 0.00 0.00 0.00 68 1011.8
20260507110436 11 101 0.0 0.0 0.00 0.00 0.00 66 1011.7
20260507105935 11 101 0.0 0.0 0.00 0.00 0.00 65 1011.6
20260507105435 11 101 0.0 0.0 0.00 0.00 0.00 64 1011.5
20260507104936 11 84 0.0 0.0 0.00 0.00 0.00 61 1011.5
20260507104439 11 118 0.0 0.0 0.00 0.00 0.00 62 1011.2
20260507104435 11 113 0.0 0.0 0.00 0.00 0.00 62 1011.3
20260507103435 11 336 0.0 0.0 0.00 0.00 0.00 64 1011.2
20260507102940 11 335 0.0 0.0 0.00 0.00 0.00 64 1011.2
20260507102439 11 342 0.0 0.0 0.00 0.00 0.00 64 1011.2
20260507102435 11 342 0.0 0.0 0.00 0.00 0.00 64 1011.2
20260507101435 11 350 0.0 0.0 0.00 0.00 0.00 65 1011.1
20260507100935 11 324 0.0 0.0 0.00 0.00 0.00 66 1011.0
20260507100435 11 325 0.0 0.0 0.00 0.00 0.00 67 1010.9
20260507095939 11 326 0.0 0.0 0.00 0.00 0.00 67 1010.7
20260507095935 11 325 0.0 0.0 0.00 0.00 0.00 66 1010.7
20260507095038 11 325 0.0 0.0 0.00 0.00 0.00 66 1010.7
20260507094937 11 326 0.0 0.0 0.00 0.00 0.00 65 1010.7
20260507094933 11 326 0.0 0.0 0.00 0.00 0.00 65 1010.6
20260507094037 11 304 0.0 0.0 0.00 0.00 0.00 65 1010.7
20260507092933 11 294 0.0 0.0 0.00 0.00 0.00 66 1010.7
20260507092433 11 17 0.0 0.0 0.00 0.00 0.00 67 1010.7
20260507091933 11 317 0.0 0.0 0.00 0.00 0.00 71 1010.8
20260507091433 11 290 0.0 0.0 0.00 0.00 0.00 72 1010.9
20260507090933 11 340 0.0 0.0 0.00 0.00 0.00 73 1010.8
20260507090432 11 50 0.0 0.0 0.00 0.00 0.00 73 1010.8
20260507085935 11 311 0.0 0.0 0.00 0.00 0.00 77 1010.7
20260507085931 11 330 0.0 0.0 0.00 0.00 0.00 75 1010.8
20260507084931 12 319 0.0 0.0 0.00 0.00 0.00 77 1010.7
20260507084431 12 319 0.0 0.0 0.00 0.00 0.00 76 1010.6
20260507083931 12 319 0.0 0.0 0.00 0.00 0.00 76 1010.6
20260507083431 12 319 0.0 0.0 0.00 0.00 0.00 74 1010.7
20260507082935 12 319 0.0 0.0 0.00 0.00 0.00 74 1010.5
20260507082931 12 319 0.0 0.0 0.00 0.00 0.00 74 1010.7
20260507081931 12 319 0.0 0.0 0.00 0.00 0.00 74 1010.5
20260507081431 12 335 0.0 0.0 0.00 0.00 0.00 74 1010.4
20260507080929 12 334 0.0 0.0 0.00 0.00 0.00 74 1010.4
20260507080429 12 334 0.0 0.0 0.00 0.00 0.00 74 1010.2
20260507075929 12 342 0.0 0.0 0.00 0.00 0.00 74 1009.9
20260507075429 12 343 0.0 0.0 0.00 0.00 0.00 74 1009.9
20260507074929 12 306 0.0 0.0 0.00 0.00 0.00 73 1009.9
20260507074429 12 306 0.0 1.6 0.00 0.00 0.00 73 1009.9
20260507073928 12 306 0.0 1.6 0.00 0.00 0.00 73 1010.1
20260507073434 12 329 0.0 0.0 0.00 0.00 0.00 73 1009.8
20260507072931 12 333 0.0 0.0 0.00 0.00 0.00 73 1009.9
20260507072927 12 322 0.0 0.0 0.00 0.00 0.00 73 1009.7
20260507071925 12 277 0.0 0.0 0.00 0.00 0.00 73 1009.9
20260507071425 12 264 0.0 0.0 0.00 0.00 0.00 74 1009.9
20260507070923 12 62 0.0 0.0 0.00 0.00 0.00 74 1010.2
20260507070423 12 0 0.0 0.0 0.00 0.00 0.00 74 1010.2
20260507065925 12 300 0.0 0.0 0.00 0.00 0.00 74 1010.4
20260507065920 12 302 0.0 0.0 0.00 0.00 0.00 74 1010.2
20260507064925 12 15 0.0 0.0 0.00 0.00 0.00 74 1010.4
20260507064921 12 293 0.0 0.0 0.00 0.00 0.00 74 1010.4
20260507063921 12 22 0.0 0.0 0.00 0.00 0.00 74 1010.4
20260507063424 12 290 0.0 0.0 0.00 0.00 0.00 75 1010.5
20260507063420 12 323 0.0 0.0 0.00 0.00 0.00 73 1010.4
20260507063025 12 51 0.0 0.0 0.00 0.00 0.00 76 1010.4
20260507061920 13 294 0.0 0.0 0.00 0.00 0.00 76 1010.5
20260507061419 13 293 0.0 0.0 0.00 0.00 0.00 76 1010.4
20260507060919 13 293 0.0 0.0 0.00 0.00 0.00 76 1010.4
20260507060419 13 293 0.0 0.0 0.00 0.00 0.00 77 1010.5
20260507055917 13 293 0.0 0.0 0.00 0.00 0.00 77 1010.4
20260507055414 13 293 0.0 0.0 0.00 0.00 0.00 77 1010.3
20260507054912 13 293 0.0 0.0 0.00 0.00 0.00 77 1010.3
20260507054413 13 293 0.0 0.0 0.00 0.00 0.00 77 1010.3
20260507053910 13 293 0.0 0.0 0.00 0.00 0.00 77 1010.1
20260507053410 13 293 0.0 0.0 0.00 0.00 0.00 77 1010.3
20260507052909 13 293 0.0 0.0 0.00 0.00 0.00 77 1010.3
20260507052414 13 293 0.0 0.0 0.00 0.00 0.00 78 1010.2
20260507052408 13 293 0.0 0.0 0.00 0.00 0.00 77 1010.3
20260507051909 13 293 0.0 0.0 0.00 0.00 0.00 77 1010.2
20260507050906 13 293 0.0 0.0 0.00 0.00 0.00 77 1010.2
20260507050407 13 293 0.0 0.0 0.00 0.00 0.00 77 1010.1
20260507045910 13 293 0.0 0.0 0.00 0.00 0.00 77 1010.2
20260507045906 13 293 0.0 0.0 0.00 0.00 0.00 77 1010.2
20260507044906 13 341 0.0 0.0 0.00 0.00 0.00 77 1010.2
20260507044405 13 340 0.0 0.0 0.00 0.00 0.00 77 1010.1
20260507043906 13 312 0.0 0.0 0.00 0.00 0.00 76 1009.9
20260507043406 13 311 0.0 0.0 0.00 0.00 0.00 77 1009.8
20260507042905 13 300 0.0 0.0 0.00 0.00 0.00 77 1009.9
20260507042410 13 307 0.0 0.0 0.00 0.00 0.00 78 1010.1
20260507042406 13 300 0.0 0.0 0.00 0.00 0.00 78 1010.3
20260507041403 13 342 0.0 0.0 0.00 0.00 0.00 79 1010.2
20260507040904 13 58 0.0 0.0 0.00 0.00 0.00 79 1010.1
20260507040407 13 325 0.0 0.0 0.00 0.00 0.00 80 1009.8
20260507040403 13 325 0.0 0.0 0.00 0.00 0.00 80 1009.9
20260507035404 13 313 0.0 0.0 0.00 0.00 0.00 80 1010.1
20260507034907 14 292 0.0 0.0 0.00 0.00 0.00 80 1009.9
20260507034903 14 315 0.0 0.0 0.00 0.00 0.00 80 1009.8
20260507033859 14 267 0.0 0.0 0.00 0.00 0.00 80 1009.9
20260507033357 14 209 0.0 0.0 0.00 0.00 0.00 80 1009.7
20260507032858 14 309 0.0 0.0 0.00 0.00 0.00 80 1009.9
20260507032401 14 45 0.0 0.0 0.00 0.00 0.00 80 1009.7
20260507032357 14 273 0.0 0.0 0.00 0.00 0.00 80 1009.9
20260507031356 14 301 0.0 0.0 0.00 0.00 0.00 79 1009.7
20260507030853 14 306 0.0 0.0 0.00 0.00 0.00 79 1009.8
20260507030352 15 306 0.0 0.0 0.00 0.00 0.00 79 1009.6
20260507025851 15 305 0.0 0.0 0.00 0.00 0.00 79 1009.7
20260507025351 15 311 0.0 0.0 0.00 0.00 0.00 79 1009.5
20260507024850 15 311 0.0 0.0 0.00 0.00 0.00 79 1009.5
20260507024353 15 307 0.0 0.0 0.00 0.00 0.00 78 1009.4
20260507024349 15 311 0.0 0.0 0.00 0.00 0.00 78 1009.4
20260507023954 15 355 0.0 0.0 0.00 0.00 0.00 78 1009.4
20260507022853 15 300 0.0 0.0 0.00 0.00 0.00 79 1009.4
20260507022849 15 301 0.0 0.0 0.00 0.00 0.00 78 1009.4
20260507021847 15 299 0.0 0.0 0.00 0.00 0.00 79 1009.2
20260507021347 15 26 0.0 0.0 0.00 0.00 0.00 78 1009.1
20260507020847 15 324 0.0 0.0 0.00 0.00 0.00 79 1009.3
20260507020345 15 5 0.0 0.0 0.00 0.00 0.00 79 1009.1
20260507015846 15 5 0.0 0.0 0.00 0.00 0.00 79 1008.9
20260507015345 15 15 0.0 0.0 0.00 0.00 0.00 78 1009.0
20260507014845 15 295 0.0 0.0 0.00 0.00 0.00 79 1009.0
20260507014343 15 342 0.0 0.0 0.00 0.00 0.00 80 1009.3
20260507013843 16 183 0.0 0.0 0.00 0.00 0.00 80 1008.9
20260507013343 16 182 0.0 0.0 0.00 0.00 0.00 81 1009.0
20260507012848 16 182 0.0 0.0 0.00 0.00 0.00 81 1008.9
20260507012843 16 182 0.0 0.0 0.00 0.00 0.00 81 1009.0
20260507011848 16 182 0.0 3.2 0.00 0.00 0.00 80 1008.8
20260507011844 16 182 0.0 1.6 0.00 0.00 0.00 80 1008.8
20260507010843 16 257 0.0 3.2 0.00 0.00 0.00 80 1008.8
20260507010352 16 299 0.0 3.2 0.00 0.00 0.00 79 1008.7
20260507010343 16 24 0.0 1.6 0.00 0.00 0.00 79 1008.7
20260507005341 16 314 0.0 12.9 0.00 0.00 0.00 79 1008.7
20260507004841 16 249 0.0 12.9 0.00 0.00 0.00 80 1008.6
20260507004345 17 313 0.0 3.2 0.00 0.00 0.00 80 1008.4
20260507004341 16 298 0.0 6.4 0.00 0.00 0.00 80 1008.4
20260507003341 17 255 0.0 1.6 0.00 0.00 0.00 82 1008.5
20260507002841 17 311 0.0 11.3 0.00 0.00 0.00 82 1008.6
20260507002341 17 292 0.0 11.3 0.00 0.00 0.00 82 1008.5
20260507001841 17 221 0.0 4.8 0.00 0.00 0.00 83 1008.2
20260507001341 17 319 0.0 1.6 0.00 0.00 0.00 84 1008.2
20260507000845 17 320 0.0 1.6 0.00 0.00 0.00 84 1008.3
20260507000339 18 302 0.0 0.0 0.00 0.00 0.00 85 1008.2
20260506235839 18 330 0.0 0.0 0.00 0.00 0.00 85 1008.0
20260506235339 18 294 0.0 14.5 0.00 0.00 0.00 85 1008.0
20260506234839 18 320 0.0 14.5 0.00 0.00 0.00 85 1007.9
20260506234339 18 300 0.0 1.6 0.00 0.00 0.00 85 1007.8
20260506233838 18 288 0.0 0.0 0.00 0.00 0.00 85 1007.5
20260506233339 18 316 0.0 1.6 0.00 0.00 0.00 85 1007.2
20260506232839 18 288 0.0 1.6 0.00 0.00 0.00 85 1007.2
20260506232339 18 275 0.0 1.6 0.00 0.00 0.00 85 1007.3
20260506231839 18 301 0.0 0.0 0.00 0.00 0.00 84 1007.3
20260506231337 18 301 0.0 0.0 0.00 0.00 0.00 84 1007.2
20260506230836 18 303 0.0 1.6 0.00 0.00 0.00 84 1007.3
20260506230337 18 332 0.0 1.6 0.00 0.00 0.00 83 1007.4
20260506225837 18 308 0.0 0.0 0.00 0.00 0.00 83 1007.4
20260506225337 19 275 0.0 0.0 0.00 0.00 0.00 83 1007.2
20260506224841 19 302 0.0 0.0 0.00 0.00 0.00 84 1007.3
20260506224837 19 267 0.0 0.0 0.00 0.00 0.00 84 1007.3
20260506223841 19 257 0.0 0.0 0.00 0.00 0.00 84 1007.3
20260506223837 19 260 0.0 0.0 0.00 0.00 0.00 84 1007.3
20260506222837 19 300 0.0 0.0 0.00 0.00 0.00 84 1007.3
20260506222341 20 233 0.0 0.0 0.00 0.00 0.00 84 1007.2
20260506222337 20 233 0.0 0.0 0.00 0.00 0.00 84 1007.3
20260506221337 20 232 0.0 0.0 0.00 0.00 0.00 84 1007.3
20260506220841 20 232 0.0 0.0 0.00 0.00 0.00 85 1006.9
20260506220837 20 232 0.0 0.0 0.00 0.00 0.00 84 1007.2
20260506215835 20 232 0.0 0.0 0.00 0.00 0.00 85 1006.9
20260506215334 20 232 0.0 0.0 0.00 0.00 0.00 85 1007.0
20260506214835 19 232 0.0 0.0 0.00 0.00 0.00 85 1007.0
20260506214333 19 232 0.0 0.0 0.00 0.00 0.00 86 1007.1
20260506213832 19 242 0.0 0.0 0.00 0.00 0.00 87 1007.0
20260506213331 19 243 0.0 0.0 0.00 0.00 0.00 87 1007.0
20260506212831 19 242 0.0 0.0 0.00 0.00 0.00 87 1007.0
20260506212328 19 242 0.0 0.0 0.00 0.00 0.00 87 1006.9
20260506211829 19 242 0.0 0.0 0.00 0.00 0.00 87 1006.8
20260506211329 19 242 0.0 0.0 0.00 0.00 0.00 87 1006.6
20260506210828 19 200 0.0 0.0 0.00 0.00 0.00 88 1006.6
20260506210327 19 200 0.0 0.0 0.00 0.00 0.00 88 1006.5
20260506205831 18 200 0.0 0.0 0.00 0.00 0.00 88 1006.5
20260506205827 18 200 0.0 0.0 0.00 0.00 0.00 88 1006.4
20260506204831 18 200 0.0 0.0 0.00 0.00 0.00 88 1006.4
20260506204827 18 200 0.0 0.0 0.00 0.00 0.00 88 1006.5
20260506204326 18 200 0.0 0.0 0.00 0.00 0.00 88 1006.4
20260506203326 18 200 0.0 0.0 0.00 0.00 0.00 88 1006.5
20260506202826 18 200 0.0 0.0 0.00 0.00 0.00 87 1006.5
20260506202327 18 200 0.0 0.0 0.00 0.00 0.00 87 1006.4
20260506201826 18 200 0.0 0.0 0.00 0.00 0.00 87 1006.5
20260506201326 18 200 0.0 0.0 0.00 0.00 0.00 87 1006.4
20260506200827 18 200 0.0 0.0 0.00 0.00 0.00 87 1006.5
20260506200326 19 200 0.0 0.0 0.00 0.00 0.00 87 1006.5
20260506195826 19 200 0.0 0.0 0.00 0.00 0.00 87 1006.6
20260506195331 19 200 0.0 0.0 0.00 0.00 0.00 86 1006.5
20260506195327 19 200 0.0 0.0 0.00 0.00 0.00 86 1006.5
20260506194931 19 200 0.0 0.0 0.00 0.00 0.00 86 1006.4
20260506193826 19 200 0.0 0.0 0.00 0.00 0.00 86 1006.5
20260506193325 19 252 0.0 0.0 0.00 0.00 0.00 86 1006.6
20260506192825 19 252 0.0 0.0 0.00 0.00 0.00 85 1006.6
20260506192327 19 252 0.0 0.0 0.00 0.00 0.00 84 1006.8
20260506191822 19 252 0.0 0.0 0.00 0.00 0.00 85 1006.7
20260506191323 19 253 0.0 0.0 0.00 0.00 0.00 84 1006.7
20260506190823 19 262 0.0 0.0 0.00 0.00 0.00 86 1006.6
20260506190818 19 204 0.0 0.0 0.00 0.00 0.00 85 1006.6
20260506190319 19 204 0.0 0.0 0.00 0.00 0.00 86 1006.7
20260506185314 18 209 0.0 0.0 0.00 0.00 0.00 86 1006.7
20260506184820 18 209 0.0 0.0 0.00 0.00 0.00 86 1006.7
20260506184314 18 209 0.0 0.0 0.00 0.00 0.00 86 1006.7
20260506183814 18 171 0.0 0.0 0.00 0.00 0.00 86 1006.8
20260506183315 18 171 0.0 0.0 0.00 0.00 0.00 87 1006.8
20260506182819 18 198 0.0 0.0 0.00 0.00 0.00 87 1006.8
20260506182318 18 242 0.0 0.0 0.00 0.00 0.00 88 1006.8
20260506182314 18 205 0.0 0.0 0.00 0.00 0.00 88 1006.9
20260506181314 18 242 0.0 0.0 0.00 0.00 0.00 87 1006.9
20260506180814 18 240 0.0 0.0 0.00 0.00 0.00 87 1006.9
20260506180312 18 246 0.0 0.0 0.00 0.00 0.00 87 1006.9
20260506175812 18 248 0.0 0.0 0.00 0.00 0.00 86 1006.9
20260506175313 18 117 0.0 0.0 0.00 0.00 0.00 87 1006.9
20260506174813 18 138 0.0 0.0 0.00 0.00 0.00 87 1007.1
20260506174312 18 286 0.0 0.0 0.00 0.00 0.00 87 1007.0
20260506173814 18 261 0.0 0.0 0.00 0.00 0.00 89 1006.9
20260506173810 18 145 0.0 0.0 0.00 0.00 0.00 88 1006.9
20260506173306 18 146 0.0 0.0 0.00 0.00 0.00 88 1006.8
20260506172307 18 257 0.0 0.0 0.00 0.00 0.00 89 1006.8
20260506171806 18 253 0.0 0.0 0.00 0.00 0.00 90 1006.8
20260506171306 18 163 0.0 0.0 0.00 0.00 0.00 91 1006.9
20260506170804 17 236 0.0 0.0 0.00 0.00 0.00 92 1006.8
20260506170304 17 294 0.0 0.0 0.00 0.00 0.00 92 1007.0
20260506165804 17 223 0.0 0.0 0.00 0.00 0.00 93 1007.0
20260506165305 17 120 0.0 0.0 0.00 0.00 0.00 93 1006.9
20260506164804 17 220 0.0 0.0 0.00 0.00 0.00 94 1007.0
20260506164305 17 236 0.0 0.0 0.00 0.00 0.00 94 1007.0
20260506163804 17 255 0.0 0.0 0.00 0.00 0.00 94 1007.0
20260506163304 16 223 0.0 0.0 0.00 0.00 0.00 94 1006.9
20260506162803 16 107 0.0 0.0 0.00 0.00 0.00 94 1007.1
20260506162306 16 202 0.0 0.0 0.00 0.00 0.00 94 1007.1
20260506161802 16 215 0.0 0.0 0.00 0.00 0.00 94 1007.1
20260506161303 16 167 0.0 0.0 0.00 0.00 0.00 94 1007.1
20260506160802 16 167 0.0 0.0 0.00 0.00 0.00 94 1007.0
20260506160302 16 190 0.0 0.0 0.00 0.00 0.00 94 1007.1
20260506155802 16 190 0.0 0.0 0.00 0.00 0.00 94 1007.1
20260506155305 16 192 0.0 0.0 0.00 0.00 0.00 94 1007.3
20260506154802 16 54 0.0 0.0 0.00 0.00 0.00 94 1007.4
20260506154302 16 96 0.0 0.0 0.00 0.00 0.00 94 1007.4
20260506153800 16 254 0.0 0.0 0.00 0.00 0.00 94 1007.3
20260506153300 16 163 0.0 1.6 0.00 0.00 0.00 94 1007.3
20260506152800 16 238 0.0 1.6 0.00 0.00 0.00 93 1007.2
20260506152300 16 182 0.0 0.0 0.00 0.00 0.00 94 1007.3
20260506151800 16 165 0.0 0.0 0.00 0.00 0.00 93 1007.2